When you browse on this site, cookies collect data to enhance your experience and personalize the content and advertising you see.
Visit our Privacy Policy to learn more. By continuing to use the site, you agree to this use of cookies and data.
  • In Portugal
  • List of Countries
  • For 7 days
  • Water Temperature
  • Satellite Maps
  • Weather Map
  • Weather Widgets
  • user-avatar
    Login

    Hourly Weather Sucre

    Today, 25 March, Monday

    Time Temperature Precipitation Wind Pressure Humidity
    00:00 +13°C° 0.1 mm 2 mps 543 mmHg 80%
    01:00 +13°C° 0.1 mm 1 mps 543 mmHg 81%
    02:00 +12°C° 0.1 mm 1 mps 542 mmHg 82%
    03:00 +12°C° 0.1 mm 1 mps 542 mmHg 82%
    04:00 +12°C° 0.1 mm 1 mps 542 mmHg 82%
    05:00 +12°C° 0.1 mm 1 mps 542 mmHg 82%
    06:00 +12°C° 0.1 mm 1 mps 542 mmHg 82%
    07:00 +12°C° 0.1 mm 1 mps 542 mmHg 81%
    08:00 +12°C° 0.1 mm 1 mps 542 mmHg 81%
    09:00 +14°C° 0.2 mm 1 mps 543 mmHg 75%
    10:00 +15°C° 0.2 mm 2 mps 543 mmHg 69%
    11:00 +16°C° 0.2 mm 2 mps 544 mmHg 64%
    12:00 +17°C° 0.1 mm 2 mps 543 mmHg 60%
    13:00 +18°C° 0.1 mm 3 mps 543 mmHg 55%
    14:00 +19°C° 0.1 mm 3 mps 543 mmHg 51%
    15:00 +19°C° 0.1 mm 4 mps 542 mmHg 52%
    16:00 +18°C° 0.1 mm 4 mps 542 mmHg 53%
    17:00 +18°C° 0.1 mm 4 mps 542 mmHg 53%
    18:00 +17°C° 0.1 mm 4 mps 542 mmHg 60%
    19:00 +16°C° 0.1 mm 3 mps 542 mmHg 66%
    20:00 +15°C° 0.1 mm 2 mps 541 mmHg 72%
    21:00 +15°C° 0.7 mm 2 mps 542 mmHg 75%
    22:00 +14°C° 0.7 mm 2 mps 542 mmHg 78%
    23:00 +14°C° 0.7 mm 2 mps 542 mmHg 81%

    Tomorrow, 26 March, Tuesday

    Time Temperature Precipitation Wind Pressure Humidity
    00:00 +13°C° 0.4 mm 2 mps 542 mmHg 83%
    01:00 +13°C° 0.4 mm 1 mps 542 mmHg 85%
    02:00 +13°C° 0.4 mm 1 mps 541 mmHg 88%
    03:00 +12°C° 0.2 mm 1 mps 541 mmHg 87%
    04:00 +12°C° 0.2 mm 1 mps 541 mmHg 87%
    05:00 +12°C° 0.2 mm 1 mps 541 mmHg 87%
    06:00 +12°C° 0.2 mm 1 mps 541 mmHg 86%
    07:00 +12°C° 0.2 mm 1 mps 542 mmHg 86%
    08:00 +13°C° 0.2 mm 1 mps 542 mmHg 85%
    09:00 +13°C° 0.2 mm 2 mps 543 mmHg 81%
    10:00 +14°C° 0.2 mm 2 mps 543 mmHg 77%
    11:00 +15°C° 0.2 mm 2 mps 544 mmHg 73%
    12:00 +15°C° 0.3 mm 2 mps 543 mmHg 69%
    13:00 +16°C° 0.3 mm 3 mps 543 mmHg 66%
    14:00 +17°C° 0.3 mm 3 mps 543 mmHg 62%
    15:00 +17°C° 0.4 mm 3 mps 543 mmHg 64%
    16:00 +16°C° 0.4 mm 3 mps 542 mmHg 66%
    17:00 +16°C° 0.4 mm 3 mps 542 mmHg 68%
    18:00 +15°C° 0.7 mm 2 mps 542 mmHg 73%
    19:00 +14°C° 0.7 mm 2 mps 542 mmHg 78%
    20:00 +13°C° 0.7 mm 2 mps 542 mmHg 83%
    21:00 +13°C° 0.2 mm 2 mps 543 mmHg 84%
    22:00 +13°C° 0.2 mm 1 mps 543 mmHg 85%
    23:00 +13°C° 0.2 mm 1 mps 544 mmHg 85%

    Day after tomorrow, 27 March, Wednesday

    Time Temperature Precipitation Wind Pressure Humidity
    00:00 +13°C° 0.4 mm 1 mps 543 mmHg 86%
    01:00 +12°C° 0.4 mm 1 mps 543 mmHg 87%
    02:00 +12°C° 0.4 mm 1 mps 543 mmHg 88%
    03:00 +12°C° 0.9 mm 1 mps 542 mmHg 89%
    04:00 +12°C° 0.9 mm 2 mps 542 mmHg 89%
    05:00 +12°C° 0.9 mm 2 mps 542 mmHg 90%
    06:00 +12°C° 1.3 mm 2 mps 543 mmHg 90%
    07:00 +11°C° 1.3 mm 1 mps 543 mmHg 90%
    08:00 +11°C° 1.3 mm 1 mps 543 mmHg 91%
    09:00 +12°C° 0.4 mm 1 mps 544 mmHg 88%
    10:00 +12°C° 0.4 mm 1 mps 544 mmHg 86%
    11:00 +12°C° 0.4 mm 1 mps 544 mmHg 84%
    12:00 +13°C° 0.1 mm 1 mps 544 mmHg 80%
    13:00 +13°C° 0.1 mm 2 mps 544 mmHg 77%
    14:00 +14°C° 0.1 mm 2 mps 544 mmHg 74%
    15:00 +14°C° 0.1 mm 2 mps 543 mmHg 72%
    16:00 +14°C° 0.1 mm 2 mps 543 mmHg 71%
    17:00 +15°C° 0.1 mm 2 mps 543 mmHg 70%
    18:00 +14°C° 0 mm 2 mps 543 mmHg 75%
    19:00 +13°C° 0 mm 2 mps 543 mmHg 80%
    20:00 +12°C° 0 mm 1 mps 543 mmHg 85%
    21:00 +12°C° 0 mm 1 mps 543 mmHg 86%
    22:00 +12°C° 0 mm 1 mps 544 mmHg 87%
    23:00 +12°C° 0 mm 1 mps 544 mmHg 89%

    28 March, Thursday

    Time Temperature Precipitation Wind Pressure Humidity
    00:00 +11°C° 0 mm 1 mps 544 mmHg 90%
    01:00 +11°C° 0 mm 1 mps 543 mmHg 91%
    02:00 +11°C° 0 mm 1 mps 543 mmHg 92%
    03:00 +10°C° 0 mm 1 mps 542 mmHg 92%
    04:00 +10°C° 0 mm 1 mps 542 mmHg 93%
    05:00 +9°C° 0 mm 0 mps 542 mmHg 93%
    06:00 +9°C° 0 mm 0 mps 543 mmHg 89%
    07:00 +10°C° 0 mm 0 mps 543 mmHg 86%
    08:00 +11°C° 0 mm 0 mps 544 mmHg 82%
    09:00 +13°C° 0 mm 1 mps 545 mmHg 74%
    10:00 +15°C° 0 mm 2 mps 545 mmHg 66%
    11:00 +16°C° 0 mm 2 mps 546 mmHg 58%
    12:00 +17°C° 0 mm 3 mps 546 mmHg 54%
    13:00 +18°C° 0 mm 3 mps 545 mmHg 50%
    14:00 +19°C° 0 mm 4 mps 545 mmHg 47%
    15:00 +19°C° 0 mm 4 mps 545 mmHg 48%
    16:00 +19°C° 0 mm 4 mps 544 mmHg 49%
    17:00 +18°C° 0 mm 4 mps 544 mmHg 50%
    18:00 +17°C° 0 mm 3 mps 544 mmHg 54%
    19:00 +16°C° 0 mm 3 mps 544 mmHg 58%
    20:00 +15°C° 0 mm 2 mps 544 mmHg 63%
    21:00 +14°C° 0 mm 1 mps 544 mmHg 67%
    22:00 +14°C° 0 mm 1 mps 544 mmHg 70%
    23:00 +13°C° 0 mm 1 mps 544 mmHg 74%

    29 March, Friday

    Time Temperature Precipitation Wind Pressure Humidity
    00:00 +12°C° 0 mm 1 mps 543 mmHg 77%
    01:00 +12°C° 0 mm 1 mps 543 mmHg 80%
    02:00 +11°C° 0 mm 1 mps 542 mmHg 83%
    03:00 +11°C° 0 mm 1 mps 542 mmHg 85%
    04:00 +10°C° 0 mm 1 mps 542 mmHg 88%
    05:00 +10°C° 0 mm 1 mps 541 mmHg 90%
    06:00 +11°C° 0 mm 1 mps 542 mmHg 86%
    07:00 +12°C° 0 mm 1 mps 543 mmHg 82%
    08:00 +12°C° 0 mm 1 mps 543 mmHg 79%
    09:00 +14°C° 0 mm 1 mps 544 mmHg 69%
    10:00 +16°C° 0 mm 2 mps 544 mmHg 60%
    11:00 +17°C° 0 mm 3 mps 545 mmHg 51%
    12:00 +19°C° 0 mm 3 mps 544 mmHg 48%
    13:00 +20°C° 0 mm 4 mps 544 mmHg 45%
    14:00 +21°C° 0 mm 4 mps 544 mmHg 41%
    15:00 +20°C° 0 mm 4 mps 543 mmHg 43%
    16:00 +20°C° 0 mm 4 mps 543 mmHg 45%
    17:00 +20°C° 0 mm 4 mps 542 mmHg 47%
    18:00 +18°C° 0 mm 3 mps 542 mmHg 52%
    19:00 +17°C° 0 mm 2 mps 542 mmHg 58%
    20:00 +15°C° 0 mm 2 mps 542 mmHg 63%
    21:00 +15°C° 0 mm 1 mps 542 mmHg 66%
    22:00 +14°C° 0 mm 1 mps 542 mmHg 69%
    23:00 +13°C° 0 mm 1 mps 542 mmHg 72%

    30 March, Saturday

    Time Temperature Precipitation Wind Pressure Humidity
    00:00 +13°C° 0 mm 1 mps 541 mmHg 75%
    01:00 +12°C° 0 mm 1 mps 541 mmHg 79%
    02:00 +12°C° 0 mm 1 mps 540 mmHg 82%
    03:00 +12°C° 0 mm 1 mps 540 mmHg 83%
    04:00 +11°C° 0 mm 1 mps 540 mmHg 85%
    05:00 +11°C° 0 mm 1 mps 539 mmHg 87%
    06:00 +12°C° 0 mm 1 mps 540 mmHg 83%
    07:00 +13°C° 0 mm 1 mps 541 mmHg 79%
    08:00 +14°C° 0 mm 1 mps 542 mmHg 76%
    09:00 +15°C° 0 mm 1 mps 542 mmHg 70%
    10:00 +17°C° 0 mm 2 mps 542 mmHg 64%
    11:00 +18°C° 0 mm 2 mps 543 mmHg 58%
    12:00 +19°C° 0 mm 3 mps 543 mmHg 55%
    13:00 +20°C° 0 mm 3 mps 542 mmHg 52%
    14:00 +21°C° 0 mm 4 mps 542 mmHg 50%
    15:00 +21°C° 0 mm 3 mps 542 mmHg 51%
    16:00 +20°C° 0 mm 3 mps 541 mmHg 52%
    17:00 +20°C° 0 mm 3 mps 541 mmHg 53%
    18:00 +19°C° 0.5 mm 3 mps 541 mmHg 58%
    19:00 +18°C° 0.5 mm 2 mps 541 mmHg 62%
    20:00 +18°C° 0.5 mm 1 mps 541 mmHg 67%
    21:00 +16°C° 0.2 mm 1 mps 541 mmHg 69%
    22:00 +16°C° 0.2 mm 1 mps 541 mmHg 71%
    23:00 +15°C° 0.2 mm 1 mps 542 mmHg 74%
    Show more